Regional Weather Roundup
Issued by NWS Charleston, SC

Current Version | Previous Version | Text Only | Print | Product List | Glossary Off
Versions: 1 2 3 4 5 6 7 8 9 10 11 12 13 14 15 16 17 18 19 20 21 22 23 24 25 26 27 28 29 30 31 32 33 34 35 36 37 38 39 40 41 42 43 44 45 46 47 48 49 50

000
ASUS42 KCHS 220712
RWRCHS

REGIONAL WEATHER ROUNDUP
NATIONAL WEATHER SERVICE CHARLESTON SC
300 AM EDT TUE AUG 22 2017

NOTE: "FAIR" INDICATES FEW OR NO CLOUDS BELOW 12,000 FEET WITH NO
SIGNIFICANT WEATHER AND/OR OBSTRUCTIONS TO VISIBILITY.

NOT ALL STATIONS ARE QUALITY CONTROLLED. USE DATA WITH CAUTION...
ESPECIALLY DEWPOINT OBSERVATIONS.

SCZ027-030-031-034>040-042>050-220800-
...SOUTHEAST SOUTH CAROLINA...

CITY           SKY/WX    TMP DP  RH WIND       PRES   REMARKS
N CHARLESTON   PTCLDY    74  74 100 N5        30.13F FOG
WATERFRONT PRK   N/A     80  78  94 VRB3      29.97F
JOHNS ISLAND   FAIR      79  77  94 CALM      30.12F
PINOPOLIS        N/A     79  77  94 CALM      30.07F
MONCKS CORNER  FAIR      72  70  94 CALM      30.13F
SUMMERVILLE    NOT AVBL
BEAUFORT MCAS  HVY RAIN  76  76 100 N5        30.12F FOG
BEAUFORT ARPT  TSTM      75  73  94 N3        30.12F
HILTON HEAD IS CLOUDY    79  77  94 CALM      30.13S
WALTERBORO     SUNNY     72  72 100 CALM      30.14F
ALLENDALE      NOT AVBL

...SOUTHERN MIDLANDS AND PEE DEE...

CITY           SKY/WX    TMP DP  RH WIND       PRES   REMARKS
GEORGETOWN     FAIR      73  72  94 CALM      30.15F
KINGSTREE      FOG       72  72 100 CALM      30.14F VSB 1
ORANGEBURG     CLEAR     72  70  93 CALM      30.14F
BARNWELL       FAIR      72  72 100 CALM      30.14F
AIKEN          FAIR      70  70 100 CALM      30.18F
MANNING        FAIR      72  68  88 N5        30.14F
COLUMBIA       PTCLDY    75  71  87 CALM      30.13F
SUMTER         PTCLDY    74  71  89 CALM      30.11F
FLORENCE       PTCLDY    75  75 100 CALM      30.14F
MYRTLE BEACH   NOT AVBL
N MYRTLE BEACH MOCLDY    78  77  96 N3        30.14F

$$

GAZ063-065-086>088-099>101-113>116-118-119-134>141-150-220800-
...SOUTHEAST GEORGIA...

CITY           SKY/WX    TMP DP  RH WIND       PRES   REMARKS
SAVANNAH ARPT  CLOUDY    76  75  97 NW3       30.13F
HUNTER AAF     CLOUDY    76  74  94 CALM      30.10F
FORT STEWART   PTCLDY    74  73  95 CALM      30.11F
STATESBORO     CLOUDY    75  75  99 CALM      30.13F
SYLVANIA         N/A     74  74 100 CALM      30.15F
CLAXTON        CLOUDY    76  75  98 CALM      30.13F

...CSRA...CENTRAL AND FAR SOUTHEAST GEORGIA...

CITY           SKY/WX    TMP DP  RH WIND       PRES   REMARKS
THOMSON        CLEAR     73  72  95 CALM      30.19F
AUGUSTA-BUSH   FOG       73  72  96 CALM      30.13F VSB 1/2
AUGUSTA-DANIEL CLEAR     77  72  84 CALM      30.15F
SWAINSBORO     FAIR      73  73 100 CALM      30.14F
VIDALIA        PTCLDY    73  73 100 CALM      30.14F
EASTMAN        FAIR      74  74 100 CALM      30.15F
HAZLEHURST     FAIR      76  74  92 CALM      30.12F
ALMA           PTCLDY    73  72  96 CALM      30.13F
WAYCROSS       CLEAR     73  70  91 CALM      30.12F
JESUP          FAIR      75  72  88 CALM      30.13F
BAXLEY         FAIR      72  72 100 CALM      30.13F
BRUNSWICK      CLEAR     73  72  94 CALM      30.12F
SAINT SIMONS   CLEAR     78  76  93 CALM      30.11F

$$

SCZ027-028-034-036>038-045-046-048>050-GAZ119-141-220800-
...LAKE AND SUPPLEMENTAL COASTAL OBSERVATIONS...

STATION/POSITION TIME  TEMP    WIND        PRES    WAVE   SWELL
                       AIR SEA DIR/SP/G            HT/PER HT/PER/DIR
                 (UTC) (F)     (DEG/KT/KT) (MB)    (FT/S) (FT/S/D)
WINYAH BAY       0545   78     330/  1     1021.0
LAKE MURRAY      0620   79     240/  4/  5 1020.0
ACE BASIN NERRS  0545   76        CALM     1021.0
FORT PULASKI     0642          300/  7/  8 1020.5F
SAPELO ISLAND    0600   77        CALM     1020.0

$$

ANZ835-935-AMZ111-154-330-350-352-354-370-450-454-472-220800-
...C-MAN AND BUOY OBSERVATIONS...

STATION/POSITION TIME  TEMP    WIND        PRES    WAVE   SWELL
                       AIR SEA DIR/SP/G            HT/PER HT/PER/DIR
                 (UTC) (F)     (DEG/KT/KT) (MB)    (FT/S) (FT/S/D)
BUOY 41004       0650   84 85  210/  8/ 10 1019.5F   3/ 9   3/140/ 9
BUOY 41008       0650   83 85  180/  8/ 10 1019.5F   2/10   2/ 90/10
FOLLY BEACH CMAN 0600   83     180/  6/  7 1021.4F
CAPERS NEARSHORE 0608   81 86  190/  6/ 10 1020.7F
FRIPP NEARSHORE  0608   83     180/ 10/ 14 1020.0F


STATION/POSITION TIME  TEMP    WIND        PRES    WAVE   SWELL
                       AIR SEA DIR/SP/G            HT/PER HT/PER/DIR
                 (UTC) (F)     (DEG/KT/KT) (MB)    (FT/S) (FT/S/D)
5E ST. MARYS GA  0630      84                N/A     2/11
FRYING PAN BUOY  0650   83 84  200/  8/ 10 1020.2F   2/ 8   2/140/ 8
BUOY 41025       0650   82 84  320/  4/  6 1020.7F   2/ 9   2/150/ 9
CAPE LOOKOUT NC  0600   81      CALM  /  1 1020.9F
BUOY 41002       0650   82 84  140/  6/  8 1020.9F   4/11   3/110/11
BUOY 41010       0650   84 85   70/ 10/ 12 1018.8F   5/ 9   5/120/ 9
ST AUGUSTINE FL  0700   82 82  150/  7/  8 1019.5F


$$



USA.gov is the U.S. government's official web portal to all federal, state and local government web resources and services.